Time,TemperatureF,DewpointF,PressureIn,WindDirection,WindDirectionDegrees,WindSpeedMPH,WindSpeedGustMPH,Humidity,HourlyPrecipIn,Conditions,Clouds,dailyrainin,SolarRadiationWatts/m^2,SoftwareType,DateUTC
2015-07-03 00:03:00,66.5,59.0,29.77,NW,326,4.0,7.0,78,0.01,,,0.06,0,weatherlink.com 1.10,2015-07-03 07:03:00,
2015-07-03 00:17:00,66.6,60.0,29.77,NW,324,3.0,6.0,78,0.01,,,0.06,0,weatherlink.com 1.10,2015-07-03 07:17:00,
2015-07-03 00:33:00,66.6,58.0,29.77,West,268,8.0,9.0,75,0.01,,,0.06,0,weatherlink.com 1.10,2015-07-03 07:33:00,
2015-07-03 00:48:00,66.8,58.0,29.76,NW,313,4.0,8.0,74,0.01,,,0.06,0,weatherlink.com 1.10,2015-07-03 07:48:00,
2015-07-03 01:03:00,67.3,58.0,29.75,West,275,4.0,6.0,71,0.00,,,0.06,0,weatherlink.com 1.10,2015-07-03 08:03:00,
2015-07-03 01:18:00,67.5,57.0,29.74,NW,316,8.0,10.0,70,0.00,,,0.06,0,weatherlink.com 1.10,2015-07-03 08:18:00,
2015-07-03 01:33:00,68.1,56.0,29.74,NW,307,9.0,12.0,66,0.00,,,0.06,0,weatherlink.com 1.10,2015-07-03 08:33:00,
2015-07-03 01:48:00,68.2,56.0,29.73,NW,324,9.0,14.0,66,0.00,,,0.06,0,weatherlink.com 1.10,2015-07-03 08:48:00,
2015-07-03 02:03:00,68.7,55.0,29.72,WNW,292,8.0,13.0,63,0.00,,,0.06,0,weatherlink.com 1.10,2015-07-03 09:03:00,
2015-07-03 02:18:00,68.5,56.0,29.72,NW,322,5.0,8.0,65,0.00,,,0.00,0,weatherlink.com 1.10,2015-07-03 09:18:00,
2015-07-03 02:33:00,68.8,56.0,29.73,NW,305,2.0,3.0,63,0.00,,,0.00,0,weatherlink.com 1.10,2015-07-03 09:33:00,
2015-07-03 02:48:00,68.6,57.0,29.72,NNW,330,3.0,5.0,66,0.00,,,0.00,0,weatherlink.com 1.10,2015-07-03 09:48:00,
2015-07-03 03:04:00,67.4,57.0,29.73,NW,307,7.0,8.0,69,0.00,,,0.00,0,weatherlink.com 1.10,2015-07-03 10:04:00,
2015-07-03 03:18:00,67.3,57.0,29.73,NNW,338,3.0,8.0,69,0.00,,,0.00,0,weatherlink.com 1.10,2015-07-03 10:18:00,
2015-07-03 03:33:00,67.3,56.0,29.72,NW,323,3.0,4.0,68,0.00,,,0.00,0,weatherlink.com 1.10,2015-07-03 10:33:00,
2015-07-03 03:48:00,68.2,56.0,29.71,WNW,294,5.0,8.0,65,0.00,,,0.00,0,weatherlink.com 1.10,2015-07-03 10:48:00,
2015-07-03 04:03:00,67.9,56.0,29.71,NW,316,13.0,13.0,66,0.00,,,0.00,0,weatherlink.com 1.10,2015-07-03 11:03:00,
2015-07-03 04:18:00,68.0,56.0,29.72,NW,307,8.0,12.0,66,0.00,,,0.00,0,weatherlink.com 1.10,2015-07-03 11:18:00,
2015-07-03 04:33:00,67.5,57.0,29.72,NW,321,3.0,9.0,68,0.00,,,0.00,0,weatherlink.com 1.10,2015-07-03 11:33:00,
2015-07-03 04:48:00,67.2,56.0,29.72,NW,308,3.0,4.0,68,0.00,,,0.00,0,weatherlink.com 1.10,2015-07-03 11:48:00,
2015-07-03 05:03:00,67.2,56.0,29.72,NNW,346,0.0,3.0,68,0.00,,,0.00,0,weatherlink.com 1.10,2015-07-03 12:03:00,
2015-07-03 05:18:00,66.4,57.0,29.72,WNW,302,3.0,7.0,71,0.01,,,0.01,0,weatherlink.com 1.10,2015-07-03 12:18:00,
2015-07-03 05:33:00,65.2,56.0,29.73,North,8,5.0,6.0,72,0.01,,,0.01,0,weatherlink.com 1.10,2015-07-03 12:33:00,
2015-07-03 05:48:00,65.9,56.0,29.73,WSW,242,1.0,3.0,70,0.01,,,0.01,7,weatherlink.com 1.10,2015-07-03 12:48:00,
2015-07-03 06:03:00,64.3,56.0,29.74,NW,323,6.0,7.0,75,0.01,,,0.01,18,weatherlink.com 1.10,2015-07-03 13:03:00,
2015-07-03 06:18:00,65.2,56.0,29.75,NW,312,10.0,13.0,72,0.00,,,0.01,25,weatherlink.com 1.10,2015-07-03 13:18:00,
2015-07-03 06:33:00,65.7,56.0,29.74,NW,304,10.0,12.0,72,0.00,,,0.01,40,weatherlink.com 1.10,2015-07-03 13:33:00,
2015-07-03 06:48:00,66.8,56.0,29.75,WNW,303,8.0,11.0,69,0.00,,,0.01,60,weatherlink.com 1.10,2015-07-03 13:48:00,
2015-07-03 07:03:00,67.1,57.0,29.75,WNW,287,4.0,7.0,69,0.00,,,0.01,76,weatherlink.com 1.10,2015-07-03 14:03:00,
2015-07-03 07:18:00,67.1,57.0,29.75,WNW,288,4.0,5.0,70,0.00,,,0.01,139,weatherlink.com 1.10,2015-07-03 14:18:00,
2015-07-03 07:33:00,67.3,58.0,29.74,West,267,5.0,6.0,72,0.00,,,0.01,315,weatherlink.com 1.10,2015-07-03 14:33:00,
2015-07-03 07:48:00,67.9,58.0,29.74,NW,313,7.0,9.0,70,0.00,,,0.01,315,weatherlink.com 1.10,2015-07-03 14:48:00,
2015-07-03 08:04:00,68.9,58.0,29.75,NW,325,8.0,14.0,68,0.00,,,0.01,378,weatherlink.com 1.10,2015-07-03 15:04:00,
2015-07-03 08:18:00,70.5,57.0,29.75,NW,313,8.0,11.0,63,0.00,,,0.01,454,weatherlink.com 1.10,2015-07-03 15:18:00,
2015-07-03 08:34:00,72.3,58.0,29.75,NW,321,10.0,11.0,61,0.00,,,0.01,418,weatherlink.com 1.10,2015-07-03 15:34:00,
2015-07-03 08:49:00,73.2,58.0,29.75,NNW,329,8.0,12.0,59,0.00,,,0.01,580,weatherlink.com 1.10,2015-07-03 15:49:00,
2015-07-03 09:04:00,74.3,57.0,29.74,WNW,301,9.0,13.0,56,0.00,,,0.01,434,weatherlink.com 1.10,2015-07-03 16:04:00,
2015-07-03 09:19:00,75.6,57.0,29.74,West,280,9.0,11.0,52,0.00,,,0.01,671,weatherlink.com 1.10,2015-07-03 16:19:00,
2015-07-03 09:34:00,77.4,56.0,29.74,SW,233,4.0,8.0,48,0.00,,,0.01,489,weatherlink.com 1.10,2015-07-03 16:34:00,
2015-07-03 09:49:00,77.9,57.0,29.74,WSW,240,4.0,7.0,48,0.00,,,0.01,733,weatherlink.com 1.10,2015-07-03 16:49:00,
2015-07-03 10:04:00,79.6,56.0,29.74,WNW,297,3.0,5.0,44,0.00,,,0.01,775,weatherlink.com 1.10,2015-07-03 17:04:00,
2015-07-03 10:19:00,80.2,56.0,29.74,North,356,1.0,4.0,44,0.00,,,0.01,707,weatherlink.com 1.10,2015-07-03 17:19:00,
2015-07-03 10:34:00,82.2,57.0,29.73,SE,128,8.0,13.0,43,0.01,,,0.02,729,weatherlink.com 1.10,2015-07-03 17:34:00,
2015-07-03 10:49:00,82.9,59.0,29.73,SE,146,9.0,9.0,44,0.01,,,0.02,821,weatherlink.com 1.10,2015-07-03 17:49:00,
2015-07-03 11:04:00,82.8,59.0,29.73,SE,141,9.0,10.0,44,0.01,,,0.02,823,weatherlink.com 1.10,2015-07-03 18:04:00,
2015-07-03 11:19:00,83.3,58.0,29.73,SSE,158,3.0,10.0,42,0.01,,,0.02,893,weatherlink.com 1.10,2015-07-03 18:19:00,
2015-07-03 11:34:00,84.2,57.0,29.73,SE,128,5.0,11.0,40,0.00,,,0.02,838,weatherlink.com 1.10,2015-07-03 18:34:00,
2015-07-03 11:49:00,85.1,56.0,29.72,ENE,72,2.0,8.0,37,0.00,,,0.02,846,weatherlink.com 1.10,2015-07-03 18:49:00,
2015-07-03 12:04:00,85.7,57.0,29.72,East,91,7.0,10.0,37,0.00,,,0.02,886,weatherlink.com 1.10,2015-07-03 19:04:00,
2015-07-03 12:20:00,85.7,54.0,29.72,ESE,106,3.0,10.0,34,0.00,,,0.02,953,weatherlink.com 1.10,2015-07-03 19:20:00,
2015-07-03 12:34:00,85.4,54.0,29.71,ESE,122,2.0,8.0,34,0.00,,,0.02,348,weatherlink.com 1.10,2015-07-03 19:34:00,
2015-07-03 12:49:00,85.4,54.0,29.71,SE,143,7.0,13.0,34,0.00,,,0.02,1327,weatherlink.com 1.10,2015-07-03 19:49:00,
2015-07-03 13:04:00,87.6,54.0,29.70,SE,134,9.0,11.0,32,0.00,,,0.02,1109,weatherlink.com 1.10,2015-07-03 20:04:00,
2015-07-03 13:35:00,87.7,54.0,29.69,WSW,242,1.0,10.0,32,0.00,,,0.02,1016,weatherlink.com 1.10,2015-07-03 20:35:00,
2015-07-03 13:50:00,88.1,54.0,29.68,NNE,27,2.0,9.0,31,0.00,,,0.02,1072,weatherlink.com 1.10,2015-07-03 20:50:00,
2015-07-03 14:05:00,89.6,53.0,29.68,SSW,199,4.0,8.0,29,0.00,,,0.02,301,weatherlink.com 1.10,2015-07-03 21:05:00,
2015-07-03 14:20:00,81.1,58.0,29.67,WSW,255,17.0,25.0,46,0.00,,,0.02,188,weatherlink.com 1.10,2015-07-03 21:20:00,
2015-07-03 14:35:00,75.8,58.0,29.71,West,272,28.0,28.0,54,0.00,,,0.02,100,weatherlink.com 1.10,2015-07-03 21:35:00,
2015-07-03 14:50:00,70.2,57.0,29.71,NW,320,24.0,36.0,63,0.00,,,0.02,232,weatherlink.com 1.10,2015-07-03 21:50:00,
2015-07-03 15:05:00,74.8,54.0,29.71,NW,312,18.0,24.0,48,0.00,,,0.02,380,weatherlink.com 1.10,2015-07-03 22:05:00,
2015-07-03 15:20:00,78.6,54.0,29.70,WNW,297,16.0,21.0,42,0.00,,,0.02,320,weatherlink.com 1.10,2015-07-03 22:20:00,
2015-07-03 15:35:00,76.6,54.0,29.70,WNW,294,16.0,20.0,46,0.00,,,0.02,239,weatherlink.com 1.10,2015-07-03 22:35:00,
2015-07-03 15:50:00,73.6,59.0,29.70,NW,305,18.0,26.0,61,0.00,,,0.02,810,weatherlink.com 1.10,2015-07-03 22:50:00,
2015-07-03 16:05:00,74.9,59.0,29.70,West,274,17.0,22.0,59,0.00,,,0.02,214,weatherlink.com 1.10,2015-07-03 23:05:00,
2015-07-03 16:20:00,78.7,60.0,29.69,NW,317,11.0,18.0,53,0.00,,,0.02,777,weatherlink.com 1.10,2015-07-03 23:20:00,
2015-07-03 16:35:00,80.7,57.0,29.69,WNW,283,16.0,21.0,45,0.00,,,0.02,691,weatherlink.com 1.10,2015-07-03 23:35:00,
2015-07-03 16:50:00,81.5,57.0,29.69,West,263,12.0,18.0,44,0.00,,,0.02,687,weatherlink.com 1.10,2015-07-03 23:50:00,
2015-07-03 17:05:00,81.3,57.0,29.69,NW,312,15.0,17.0,44,0.00,,,0.02,633,weatherlink.com 1.10,2015-07-04 00:05:00,
2015-07-03 17:21:00,83.2,56.0,29.69,WNW,300,6.0,18.0,40,0.01,,,0.03,563,weatherlink.com 1.10,2015-07-04 00:21:00,
2015-07-03 17:35:00,83.5,55.0,29.68,NNW,344,17.0,18.0,38,0.01,,,0.03,626,weatherlink.com 1.10,2015-07-04 00:35:00,
2015-07-03 17:50:00,83.1,55.0,29.68,North,351,8.0,16.0,38,0.01,,,0.03,332,weatherlink.com 1.10,2015-07-04 00:50:00,
2015-07-03 18:05:00,83.8,53.0,29.68,NW,317,11.0,20.0,35,0.01,,,0.03,571,weatherlink.com 1.10,2015-07-04 01:05:00,
2015-07-03 18:20:00,83.9,54.0,29.68,North,354,7.0,15.0,36,0.00,,,0.03,434,weatherlink.com 1.10,2015-07-04 01:20:00,
2015-07-03 18:35:00,84.0,54.0,29.68,NW,320,9.0,16.0,35,0.00,,,0.03,399,weatherlink.com 1.10,2015-07-04 01:35:00,
2015-07-03 18:50:00,83.7,54.0,29.69,NNW,330,9.0,16.0,36,0.00,,,0.03,353,weatherlink.com 1.10,2015-07-04 01:50:00,
2015-07-03 19:05:00,83.2,53.0,29.68,NNW,334,11.0,15.0,35,0.00,,,0.03,302,weatherlink.com 1.10,2015-07-04 02:05:00,
2015-07-03 19:20:00,83.0,52.0,29.68,WNW,301,13.0,16.0,34,0.00,,,0.03,176,weatherlink.com 1.10,2015-07-04 02:20:00,
2015-07-03 19:35:00,82.3,54.0,29.68,WNW,302,12.0,14.0,38,0.00,,,0.03,113,weatherlink.com 1.10,2015-07-04 02:35:00,
2015-07-03 19:50:00,80.3,57.0,29.68,WNW,302,15.0,20.0,45,0.00,,,0.03,47,weatherlink.com 1.10,2015-07-04 02:50:00,
2015-07-03 20:05:00,79.1,58.0,29.68,WNW,292,13.0,17.0,48,0.00,,,0.03,26,weatherlink.com 1.10,2015-07-04 03:05:00,
2015-07-03 20:20:00,78.6,57.0,29.68,NW,313,10.0,14.0,48,0.00,,,0.03,28,weatherlink.com 1.10,2015-07-04 03:20:00,
2015-07-03 20:35:00,78.4,57.0,29.68,NNW,329,9.0,10.0,48,0.00,,,0.03,9,weatherlink.com 1.10,2015-07-04 03:35:00,